Location: Tamazert
(32.6352°N, 5.2072°W)
Time: 03:44:50
(UTC+00:00)

Vanguard 2 Rocket - Pass Details

Date: 05 October 2022
Orbit: 555 x 3321 km, 32.9° (Epoch: 05 December)

Event Time Altitude Azimuth Distance (km) Brightness Sun altitude
Rises 02:09:47 0° 279° (W) 5,629 - -50.4°
Reaches altitude 10° 02:14:12 10° 279° (W) 4,164 - -49.6°
Maximum altitude 02:24:17 80° 194° (SSW) 1,154 - -47.9°
Drops below altitude 10° 02:29:56 10° 108° (ESE) 2,412 - -46.9°
Sets 02:31:53 0° 107° (ESE) 3,155 - -46.6°
